Weather History for Elkins, WV

Change the Weather History Date:

Monday, April 30, 2012

  Actual Average Record
Temperature  
Mean Temperature 63 °F 54 °F  
Max Temperature 84 °F 67 °F 87 °F (1899)
Min Temperature 41 °F 41 °F 24 °F (1977)
Degree Days  
Heating Degree Days 2 11  
Month to date heating degree days 438 463  
Since 1 July heating degree days 4626 5563  
Cooling Degree Days 0 0  
Month to date cooling degree days 0 3  
Year to date cooling degree days 0 3  
Growing Degree Days 12 (Base 50)    
Moisture  
Dew Point 47 °F    
Average Humidity 59    
Maximum Humidity 89    
Minimum Humidity 28    
Precipitation  
Precipitation T in 0.13 in 1.90 in (1966)
Month to date precipitation 2.24 3.80  
Year to date precipitation 11.73 14.09  
Snow  
Snow 0.00 in - - ()
Month to date snowfall 0.2  
Since 1 September snowfall 30.6  
Snow Depth 0.00 in    
Sea Level Pressure  
Sea Level Pressure 30.12 in    
Wind  
Wind Speed 5 mph (SW)    
Max Wind Speed 16 mph    
Max Gust Speed 25 mph    
Visibility 10 miles    
Events      
T = Trace of Precipitation, MM = Missing Value Source: NWS Daily Summary

Daily Weather History Graph

Daily Weather History Graph

Search for Another Location

Airport:

Trip Planner

Search our weather history database for the weather conditions in past years. The results will help you decide how hot, cold, wet, or windy it might be!

Date:

Astronomy

Apr. 30, 2012 Rise Set
Actual Time 6:22 AM EDT 8:11 PM EDT
Civil Twilight 5:53 AM EDT 8:40 PM EDT
Nautical Twilight 5:18 AM EDT 9:15 PM EDT
Astronomical Twilight 4:41 AM EDT 9:52 PM EDT
Moon 2:09 PM EDT (4/30) 2:42 AM EDT (4/30)
Length of Visible Light 14h 46m
Length of Day
13h 49m
Waxing Gibbous, 63% of the Moon is Illuminated
Apr 30
Waxing Gibbous
May 5
Full
May 12
Last Quarter
May 20
New
May 28
First Quarter

Hourly Weather History & Observations

Time (EDT) Temp. Heat Index Dew Point Humidity Pressure Visibility Wind Dir Wind Speed Gust Speed Precip Events Conditions
12:51 AM 41.0 °F - 37.0 °F 86% 30.25 in 10.0 mi Calm Calm - N/A   Clear
1:51 AM 41.0 °F - 37.0 °F 86% 30.24 in 10.0 mi Calm Calm - N/A   Clear
2:51 AM 45.0 °F - 39.9 °F 82% 30.21 in 10.0 mi Calm Calm - N/A   Overcast
3:51 AM 46.4 °F - 39.2 °F 76% 30.20 in 10.0 mi Calm Calm - N/A   Overcast
4:51 AM 42.1 °F - 39.0 °F 89% 30.21 in 10.0 mi Calm Calm - N/A   Clear
5:51 AM 41.0 °F - 37.9 °F 89% 30.22 in 10.0 mi Calm Calm - N/A   Clear
6:51 AM 41.0 °F - 37.9 °F 89% 30.23 in 10.0 mi Calm Calm - N/A   Clear
7:51 AM 46.9 °F - 39.9 °F 77% 30.23 in 10.0 mi West 3.5 mph - N/A   Clear
8:51 AM 54.0 °F - 43.0 °F 66% 30.22 in 9.0 mi Calm Calm - N/A   Clear
9:51 AM 66.9 °F - 53.1 °F 61% 30.19 in 10.0 mi Calm Calm - N/A   Clear
10:51 AM 73.0 °F - 55.0 °F 53% 30.17 in 10.0 mi SSE 5.8 mph - N/A   Clear
11:51 AM 75.0 °F - 55.0 °F 50% 30.14 in 10.0 mi Variable 4.6 mph - N/A   Mostly Cloudy
12:51 PM 80.1 °F 79.9 °F 53.1 °F 39% 30.10 in 10.0 mi WSW 8.1 mph - N/A   Mostly Cloudy
1:51 PM 81.0 °F 80.4 °F 53.1 °F 38% 30.07 in 10.0 mi Variable 6.9 mph - N/A   Partly Cloudy
2:51 PM 82.9 °F - 48.9 °F 31% 30.04 in 10.0 mi West 10.4 mph - N/A   Partly Cloudy
3:51 PM 82.9 °F - 48.0 °F 29% 30.02 in 10.0 mi West 10.4 mph 16.1 mph N/A   Partly Cloudy
4:51 PM 82.9 °F - 46.0 °F 27% 30.01 in 10.0 mi West 8.1 mph 17.3 mph N/A   Clear
5:51 PM 82.9 °F - 48.9 °F 31% 30.02 in 10.0 mi Variable 6.9 mph - N/A   Mostly Cloudy
6:51 PM 80.1 °F - 48.9 °F 34% 30.00 in 10.0 mi WSW 9.2 mph - N/A   Clear
7:51 PM 77.0 °F - 50.0 °F 39% 30.00 in 10.0 mi West 5.8 mph - N/A   Clear
8:51 PM 75.0 °F - 55.0 °F 50% 30.02 in 10.0 mi South 8.1 mph - N/A   Overcast
9:51 PM 73.0 °F - 57.9 °F 59% 30.01 in 10.0 mi South 4.6 mph - N/A   Mostly Cloudy
10:51 PM 71.1 °F - 57.9 °F 63% 30.01 in 10.0 mi South 6.9 mph - N/A   Mostly Cloudy
11:51 PM 69.1 °F - 57.0 °F 65% 30.01 in 10.0 mi South 5.8 mph - N/A   Partly Cloudy